EW1600 Weather Reports


time (UTC)temp
C
wind
direction
speed
KPH
gust
KPH
rain 1hr
cm
rain 24hr
cm
rain mn
cm
humidity
%
barometer
mb
20260503053504 3 147 0.0 1.6 0.00 0.76 0.00 71 1014.0
20260503052504 3 147 0.0 1.6 0.00 0.76 0.00 72 1014.0
20260503052004 3 147 0.0 1.6 0.00 0.76 0.00 71 1013.9
20260503051504 3 147 0.0 0.0 0.00 0.76 0.00 71 1013.9
20260503051004 2 147 0.0 0.0 0.00 0.79 0.00 72 1013.9
20260503050503 2 147 0.0 0.0 0.00 0.79 0.00 74 1013.9
20260503050005 2 147 0.0 1.6 0.00 0.79 0.00 75 1013.9
20260503045504 2 147 0.0 1.6 0.00 0.79 0.00 76 1014.0
20260503045003 2 147 0.0 0.0 0.00 0.79 0.00 76 1014.1
20260503044504 2 147 0.0 1.6 0.00 0.79 0.00 76 1014.0
20260503044004 2 147 0.0 0.0 0.00 0.79 0.00 77 1014.0
20260503043004 2 147 0.0 0.0 0.00 0.79 0.00 78 1014.1
20260503042503 2 147 0.0 0.0 0.00 0.79 0.00 78 1014.2
20260503042004 2 150 0.0 0.0 0.00 0.79 0.00 78 1014.2
20260503041504 2 222 0.0 0.0 0.00 0.79 0.00 78 1014.2
20260503041004 2 226 0.0 0.0 0.00 0.79 0.00 78 1014.1
20260503040004 2 226 0.0 0.0 0.00 0.79 0.00 77 1014.1
20260503035004 2 154 0.0 0.0 0.00 0.79 0.00 78 1014.0
20260503034504 2 154 0.0 0.0 0.00 0.79 0.00 77 1014.0
20260503033503 2 153 0.0 0.0 0.00 0.79 0.00 77 1014.0
20260503033004 2 153 0.0 1.6 0.00 0.79 0.00 77 1014.0
20260503032504 2 150 1.6 4.8 0.00 0.79 0.00 78 1014.0
20260503032004 2 283 0.0 1.6 0.00 0.79 0.00 78 1014.1
20260503031504 2 283 0.0 1.6 0.00 0.79 0.00 78 1014.1
20260503030004 2 104 0.0 3.2 0.00 0.79 0.00 77 1014.1
20260503025504 2 356 0.0 1.6 0.00 0.79 0.00 78 1014.1
20260503025004 2 336 0.0 1.6 0.00 0.79 0.00 79 1014.1
20260503024503 2 336 0.0 3.2 0.00 0.79 0.00 81 1014.0
20260503024003 2 39 1.6 4.8 0.00 0.79 0.00 84 1014.1
20260503023503 2 93 0.0 1.6 0.00 0.79 0.00 85 1014.0
20260503023004 2 93 0.0 0.0 0.00 0.79 0.00 86 1014.2
20260503022504 2 93 0.0 1.6 0.00 0.79 0.00 86 1014.2
20260503022004 2 93 0.0 1.6 0.00 0.79 0.00 86 1014.2
20260503021504 2 102 0.0 1.6 0.00 0.79 0.00 86 1014.2
20260503021004 2 100 0.0 1.6 0.00 0.79 0.00 86 1014.2
20260503020004 2 29 0.0 0.0 0.00 0.81 0.00 85 1014.4
20260503015503 2 29 0.0 0.0 0.00 0.81 0.00 85 1014.4
20260503015004 2 29 0.0 1.6 0.00 0.81 0.00 85 1014.5
20260503014504 2 36 0.0 1.6 0.00 0.84 0.00 85 1014.5
20260503014004 2 84 0.0 0.0 0.00 0.84 0.00 86 1014.4
20260503013504 2 84 0.0 0.0 0.00 0.84 0.00 86 1014.5
20260503013004 2 84 0.0 0.0 0.00 0.84 0.00 86 1014.5
20260503012504 2 84 0.0 0.0 0.00 0.84 0.00 86 1014.5
20260503012004 2 84 0.0 0.0 0.00 0.84 0.00 86 1014.5
20260503011504 2 84 0.0 1.6 0.00 0.84 0.00 86 1014.5
20260503011004 2 84 0.0 1.6 0.00 0.84 0.00 86 1014.6
20260503010004 2 96 0.0 3.2 0.00 0.84 0.00 87 1014.8
20260503004504 2 89 0.0 1.6 0.00 0.84 0.00 88 1014.9
20260503003504 2 102 0.0 1.6 0.00 0.84 0.00 88 1015.0
20260503003004 2 82 0.0 3.2 0.00 0.84 0.00 88 1015.0
20260503002504 2 86 0.0 1.6 0.00 0.84 0.00 88 1015.1
20260503002004 2 99 0.0 3.2 0.00 0.84 0.00 88 1015.1
20260503001503 2 99 0.0 1.6 0.00 0.84 0.00 88 1015.1
20260503001004 2 118 1.6 4.8 0.00 0.84 0.00 88 1015.1
20260503000504 1 59 1.6 4.8 0.00 0.84 0.00 88 1015.1
20260503000003 1 75 0.0 4.8 0.00 0.84 0.00 88 1015.2
20260502235504 1 91 1.6 4.8 0.00 0.84 0.00 87 1015.3
20260502235004 1 105 0.0 4.8 0.00 0.84 0.00 87 1015.3
20260502234504 2 86 3.2 4.8 0.00 0.84 0.00 86 1015.3
20260502234004 2 105 1.6 3.2 0.00 0.84 0.00 86 1015.4
20260502233504 2 115 0.0 4.8 0.00 0.84 0.00 86 1015.5
20260502233004 2 163 1.6 3.2 0.00 0.84 0.00 86 1015.4
20260502232003 2 91 1.6 4.8 0.00 0.84 0.00 85 1015.3
20260502231504 2 85 1.6 4.8 0.00 0.84 0.00 85 1015.5
20260502230504 2 103 1.6 4.8 0.00 0.84 0.00 83 1015.5
20260502230004 2 110 1.6 4.8 0.00 0.84 0.00 82 1015.5
20260502225503 2 96 1.6 3.2 0.00 0.84 0.00 81 1015.4
20260502225003 2 88 1.6 4.8 0.00 0.84 0.00 80 1015.4
20260502224504 3 69 1.6 3.2 0.00 0.84 0.00 80 1015.3
20260502224004 3 93 1.6 3.2 0.00 0.84 0.00 79 1015.3
20260502223504 3 41 0.0 4.8 0.00 0.84 0.00 79 1015.4
20260502223004 3 88 0.0 1.6 0.00 0.84 0.00 79 1015.3
20260502222504 3 91 0.0 1.6 0.00 0.84 0.00 79 1015.4
20260502222004 3 91 0.0 3.2 0.00 0.84 0.00 78 1015.4
20260502221505 3 110 0.0 1.6 0.00 0.84 0.00 78 1015.4
20260502221004 3 136 0.0 4.8 0.00 0.84 0.00 77 1015.4
20260502220505 3 339 1.6 4.8 0.00 0.84 0.00 78 1015.3
20260502220005 3 145 0.0 3.2 0.00 0.84 0.00 78 1015.5
20260502215505 3 113 0.0 1.6 0.00 0.84 0.84 78 1015.6
20260502215005 3 121 0.0 1.6 0.00 0.84 0.84 77 1015.6
20260502214504 3 151 0.0 3.2 0.00 0.84 0.84 78 1015.6
20260502214005 3 109 0.0 1.6 0.00 0.84 0.84 78 1015.6
20260502213506 3 45 0.0 1.6 0.00 0.84 0.84 77 1015.6
20260502212004 3 43 0.0 1.6 0.00 0.84 0.84 79 1015.6
20260502210504 3 126 1.6 4.8 0.00 0.84 0.84 79 1015.7
20260502210004 3 134 1.6 4.8 0.00 0.84 0.84 79 1015.7
20260502205503 3 118 0.0 3.2 0.00 0.84 0.84 78 1015.8
20260502205003 3 81 0.0 3.2 0.00 0.84 0.84 79 1015.7
20260502204003 3 1 0.0 1.6 0.00 0.84 0.84 80 1015.8
20260502203004 3 335 0.0 3.2 0.00 0.84 0.84 80 1015.7
20260502202504 3 12 1.6 3.2 0.00 0.84 0.84 80 1015.7
20260502202004 3 81 0.0 1.6 0.00 0.84 0.84 80 1015.6
20260502201003 3 49 0.0 1.6 0.00 0.84 0.84 79 1015.7
20260502200504 3 110 0.0 0.0 0.00 0.84 0.84 79 1015.7
20260502195504 3 113 1.6 3.2 0.00 0.84 0.84 77 1015.7
20260502195004 3 350 1.6 4.8 0.00 0.84 0.84 77 1015.8
20260502194504 3 164 0.0 4.8 0.00 0.84 0.84 76 1015.7
20260502194003 3 132 0.0 4.8 0.00 0.84 0.84 77 1015.6
20260502193003 3 356 1.6 3.2 0.00 0.84 0.84 77 1015.8
20260502192503 3 41 0.0 3.2 0.00 0.84 0.84 77 1015.7
20260502191503 3 60 0.0 3.2 0.00 0.84 0.84 77 1015.6
20260502191003 3 137 1.6 4.8 0.00 0.84 0.84 77 1015.6
20260502190504 3 191 0.0 1.6 0.00 0.84 0.84 77 1015.6
20260502190004 3 92 1.6 12.9 0.00 0.84 0.84 77 1015.7
20260502185504 3 80 1.6 4.8 0.00 0.84 0.84 78 1015.8
20260502185003 4 96 1.6 8.0 0.00 0.84 0.84 77 1015.7
20260502184503 4 136 1.6 3.2 0.00 0.84 0.84 76 1015.7
20260502184003 4 153 0.0 3.2 0.00 0.84 0.84 76 1015.6
20260502183503 4 108 0.0 1.6 0.00 0.84 0.84 77 1015.5
20260502183004 4 143 1.6 8.0 0.00 0.84 0.84 76 1015.6
20260502182003 4 2 1.6 3.2 0.00 0.84 0.84 78 1015.6
20260502181504 3 155 1.6 4.8 0.00 0.84 0.84 78 1015.5
20260502180504 4 149 3.2 11.3 0.00 0.84 0.84 78 1015.6
20260502170503 5 336 1.6 4.8 0.00 0.84 0.84 75 1015.6
20260502164004 5 325 1.6 4.8 0.00 0.84 0.84 76 1015.6
20260502163504 5 143 0.0 1.6 0.00 0.84 0.84 76 1015.5
20260502163003 5 138 1.6 9.7 0.00 0.84 0.84 75 1015.5
20260502162504 5 207 1.6 4.8 0.00 0.84 0.84 76 1015.5
20260502162004 5 148 1.6 4.8 0.00 0.84 0.84 75 1015.5
20260502161504 5 141 1.6 3.2 0.00 0.84 0.84 76 1015.5
20260502161004 5 114 1.6 4.8 0.00 0.84 0.84 76 1015.5
20260502160504 5 152 1.6 3.2 0.00 0.84 0.84 76 1015.6
20260502152004 4 156 1.6 4.8 0.00 0.84 0.84 79 1015.7
20260502151004 4 154 1.6 4.8 0.00 0.84 0.84 79 1015.7
20260502150504 4 83 3.2 8.0 0.00 0.84 0.84 78 1015.7
20260502130503 3 337 0.0 1.6 0.00 0.84 0.84 87 1015.8
20260502123503 3 298 3.2 4.8 0.00 0.84 0.84 86 1015.7
20260502122003 4 279 1.6 4.8 0.00 0.84 0.84 86 1015.5
20260502121003 4 289 3.2 4.8 0.00 0.84 0.84 85 1015.4
20260502120504 4 291 1.6 8.0 0.00 0.84 0.84 85 1015.3
20260502115504 4 291 3.2 11.3 0.00 0.84 0.84 85 1015.3
20260502114004 4 295 1.6 4.8 0.00 0.84 0.84 86 1015.3
20260502113004 4 296 3.2 9.7 0.00 0.84 0.84 86 1015.3
20260502112004 4 287 3.2 4.8 0.00 0.84 0.84 87 1015.1
20260502111504 4 272 4.8 11.3 0.00 0.84 0.84 87 1015.2
20260502110504 5 298 3.2 4.8 0.00 0.84 0.84 88 1015.0
20260502110004 4 284 4.8 11.3 0.00 0.84 0.84 88 1015.0
20260502105504 4 287 3.2 8.0 0.00 0.84 0.84 88 1014.9
20260502104504 4 332 4.8 11.3 0.00 0.84 0.84 89 1014.7
20260502104004 4 295 4.8 16.1 0.00 0.84 0.84 89 1014.7
20260502103503 4 311 3.2 4.8 0.03 0.84 0.84 89 1014.7
20260502103004 4 329 3.2 12.9 0.03 0.84 0.84 89 1014.5
20260502102503 4 324 4.8 16.1 0.03 0.84 0.84 90 1014.5
20260502102003 4 314 4.8 12.9 0.03 0.84 0.84 90 1014.5
20260502101503 4 307 3.2 12.9 0.03 0.84 0.84 90 1014.5
20260502101004 4 299 3.2 11.3 0.05 0.84 0.84 90 1014.4
20260502100504 4 313 4.8 16.1 0.05 0.84 0.84 90 1014.4
20260502091504 3 289 1.6 8.0 0.10 0.81 0.81 91 1014.0
20260502091003 4 292 3.2 16.1 0.08 0.79 0.79 91 1013.9
20260502090504 4 310 1.6 11.3 0.05 0.79 0.79 91 1014.0
20260502071503 5 301 1.6 4.8 0.51 0.69 0.69 91 1012.5
20260502071004 5 211 1.6 4.8 0.51 0.69 0.69 91 1012.5
20260502070503 5 267 1.6 11.3 0.51 0.66 0.66 91 1012.5
20260502070004 5 154 1.6 4.8 0.51 0.66 0.66 91 1012.4
20260502065504 6 130 3.2 4.8 0.51 0.64 0.64 90 1012.4
20260502065004 6 309 3.2 4.8 0.51 0.61 0.61 90 1012.2
20260502064504 6 296 3.2 12.9 0.51 0.61 0.61 90 1012.3
20260502063503 6 285 4.8 20.9 0.33 0.43 0.43 90 1012.2
20260502063003 7 297 11.3 20.9 0.23 0.33 0.33 90 1012.2
20260502062503 7 290 9.7 20.9 0.20 0.28 0.28 89 1012.1
20260502062004 7 287 9.7 19.3 0.15 0.23 0.23 89 1012.1
20260502061504 7 268 3.2 12.9 0.10 0.18 0.18 89 1012.0
20260502061003 7 250 8.0 14.5 0.08 0.15 0.15 89 1012.0
20260502060504 7 203 4.8 9.7 0.08 0.15 0.15 90 1011.9
20260502060004 7 164 4.8 12.9 0.08 0.15 0.15 89 1011.8
20260502055003 7 249 1.6 16.1 0.05 0.13 0.13 90 1011.8
20260502054503 7 280 3.2 8.0 0.05 0.10 0.10 90 1011.8